Theta_e
327 325 325 326 325 324 325 324 327 327 327 327 326 326 325 324 323 324 322 322 322 319
328 327 327 329 328 325 327 325 326 326 326 326 326 326 326 324 324 325 324 324 324 321
328 328 328 329 328 328 328 328 327 327 327 327 327 327 327 326 326 325 324 323 322 322
326 328 328 328 328 328 328 328 327 327 327 326 327 328 327 327 327 325 325 325 324 323
328 329 328 328 329 329 328 329 327 327 326 326 326 328 327 326 326 325 324 324 325 324
329 329 329 329 330 330 328 328 327 326 325 326 326 326 327 326 325 325 325 326 325 325
329 328 328 329 329 328 328 326 327 327 326 326 326 326 326 326 326 326 326 326 326 324
326 326 326 327 327 327 327 326 326 326 327 327 326 323 323 325 326 325 324 323 322 322
326 327 327 327 326 326 327 328 328 326 325 325 317 304 304 312 320 319 318 317 317 318
326 325 325 325 327 327 326 326 325 325 322 316 313 300 301 306 316 316 315 315 315 314
326 327 327 325 324 324 324 324 320 318 317 316 311 300 300 303 316 315 315 315 314 314
325 322 321 321 321 322 322 319 317 317 316 316 314 300 299 306 313 313 312 313 314 312
320 320 319 320 320 321 319 317 316 315 316 308 315 301 299 303 311 310 309 311 311 306
319 318 318 319 320 318 317 316 315 315 316 315 312 312 299 298 310 308 308 309 309 311
Wind_Speed
7 5 5 4 4 5 5 4 5 6 7 9 10 10 9 8 9 9 9 12 10 9
7 8 6 6 5 6 5 5 7 8 9 10 10 10 10 9 10 10 10 11 12 11
8 8 8 7 7 8 7 7 8 9 10 11 11 11 10 10 10 11 10 10 9 10
7 7 8 8 8 8 8 8 10 10 11 12 12 11 11 12 13 13 13 13 13 16
8 8 9 8 9 7 9 9 10 10 11 12 12 12 12 13 13 13 14 14 15 15
7 7 9 9 9 8 8 10 10 10 12 12 12 12 11 12 13 13 13 13 14 14
4 4 5 7 7 7 7 10 10 9 9 9 9 10 10 10 10 11 11 11 12 12
4 3 4 5 5 6 7 7 7 6 6 7 7 8 10 9 9 10 10 11 11 11
4 4 5 5 6 6 5 6 6 7 8 10 8 11 13 9 8 10 10 11 12 13
5 5 5 5 5 5 6 7 8 9 9 10 10 12 11 9 9 10 11 12 12 12
6 5 5 5 6 6 6 7 8 9 8 8 9 12 14 13 12 11 13 13 13 14
6 5 5 6 6 6 6 7 7 7 8 9 10 11 12 14 11 12 13 13 13 13
5 5 6 5 6 5 6 6 5 7 8 6 10 11 13 12 9 12 11 11 12 9
5 5 5 5 5 5 5 5 6 6 6 8 9 10 10 10 10 10 9 10 9 11
Wind_Direction
220 224 239 241 274 275 269 284 292 273 274 271 271 266 268 269 271 276 268 270 267 271
214 224 241 242 242 261 261 272 271 274 277 276 274 268 272 269 273 274 272 273 271 267
220 227 243 245 242 255 265 265 272 276 276 277 275 273 272 276 276 274 276 275 274 273
238 239 244 250 252 256 269 271 273 278 280 279 279 281 278 277 280 279 282 283 279 282
247 250 253 258 262 264 268 278 279 282 282 281 283 286 282 284 287 290 291 290 288 291
247 256 264 267 272 279 293 294 286 279 280 289 297 299 298 296 296 294 296 299 298 302
256 280 288 287 290 299 301 293 296 302 303 311 318 321 319 313 310 306 309 310 308 308
23 349 311 298 313 309 306 312 321 330 352 4 2 9 337 328 325 331 331 329 325 318
351 344 330 322 320 328 351 5 12 18 22 38 40 4 15 359 357 347 344 335 332 328
351 0 4 353 4 24 27 27 38 46 57 57 34 12 354 341 7 353 350 345 339 335
27 29 28 33 34 44 43 52 60 62 59 50 41 11 4 341 4 356 352 348 344 343
34 35 35 47 43 47 71 72 67 56 46 33 31 9 0 352 352 350 346 344 348 345
33 44 63 55 57 69 77 73 63 52 38 41 13 33 15 2 351 347 340 349 346 318
60 71 62 70 76 79 72 61 44 32 22 18 20 14 6 356 351 353 341 346 349 354